Starlink 31089

operational
NORAD ID: 58610 Int'l Des: 2023-200 Owner: SPXS Country: US Constellation: starlink
LEOCIRCULAR

Starlink 31089について

説明を読み込み中...

リアルタイム位置

3D地球を読み込み中...

次回通過

高度履歴

Altitude vs Time

uPlot chart will show altitude changes over time

軌道要素

1 58610U 23200X 26095.46491944 -.00001596 00000-0 -49828-4 0 9998
2 58610 43.0019 17.7603 0001321 287.1294 72.9413 15.26731975127702
Epoch: Apr 5, 2026 • Age: 9 hours

現在のステータス

高度 497.0 km
速度 7.62 km/s
衛星直下点 -40.16°S, 124.17°E
打ち上げ日 Dec 19, 2023
運用期間 2.2 years
タイプ internet

技術仕様

分類 Payload
質量 730.00 kg
乾燥質量 700.00 kg
総質量 730.00 kg
長さ 0.30 m
直径 4.10 m
スパン 29.00 m
形状 Box + pan
製造者 SPXS
バスタイプ Starlink V2M
フェーズステータス In Orbit
所有者/国 SPXS/US

大規模コンステレーション

Loading constellations...